Tracking 29747 objects as of 9-Oct-2024
HD Live streaming from Space Station
objects crossing your sky now

BREEZE-M DEB

Track BREEZE-M DEB now!
10-day predictions


NORAD ID: 38566
Int'l Code: 2008-011M
Perigee: 700.0 km
Apogee: 17,398.4 km
Inclination: 48.1 °
Period: 317.6 minutes
Semi major axis: 15420 km
RCS: 0.269 m2 (medium)
Launch date: March 14, 2008
Source: Commonwealth of Independent States (former USSR) (CIS)
Launch site: TYURATAM MISSILE AND SPACE COMPLEX (TTMTR)

Note: This is SATELLITE DEBRIS
Your satellite tracking list
Your tracking list is empty




NASA's NSSDC Master Catalog

Two Line Element Set (TLE):
1 38566U 08011M   24283.04702715  .00013214  00000-0  10419+0 0  9998
2 38566  48.1442 146.3430 5414466  77.6564 335.5170  4.53385480195930
Source of the keplerian elements: AFSPC